Add date Part number Description Manufacture PDF
05-09-2015 AIT8427 (Document no: TD8427 12030001) Mob Alpha Imaging Technology AIT8427 datasheet
05-09-2015 B60NH02L STB60NH02L N-CHANNEL 24V - 0.0085 STMicroelectronics B60NH02L datasheet
05-09-2015 NT35510 NT35510 – General Specification O Novatek NT35510 datasheet
05-09-2015 CS13001 TO-92 Plastic-Encapsulate Transisto CAN SHENG CS13001 datasheet
05-09-2015 C6099 www..com Ordering number Sanyo Semicon Device C6099 datasheet
05-09-2015 MS51958 Downloaded from www.everyspe Military Standard MS51958 datasheet
05-09-2015 ASM1053 ASuSpMeArS1Sp0eMe5de3UdSDiBaaLttoCe ASMedia ASM1053 datasheet
05-09-2015 STN4826 STN4826 Dual N Channel Enhancement Stanson STN4826 datasheet
05-09-2015 PL2775 PL2775 SuperSpeed USB 3.0 to Dual S Prolific PL2775 datasheet
05-09-2015 CY15B104Q CY15B104Q 4-Mbit (512 K × 8) Seria Cypress Semiconductor CY15B104Q datasheet
05-09-2015 K1626 2SK1628, 2SK1629 Silicon N-Channel Hitachi Semiconductor K1626 datasheet
05-09-2015 MUR480EG MUR480EG, MUR4100EG SWITCHMODE Pow ON Semiconductor MUR480EG datasheet
05-09-2015 MUR4100EG MUR480EG, MUR4100EG SWITCHMODE Pow ON Semiconductor MUR4100EG datasheet
05-09-2015 LTN141BT08-002 Approval TO : Lenovo DATE : Dec 1, Samsung LTN141BT08-002 datasheet
05-09-2015 TC55V8200FT-10 Toshiba TC55V8200FT-10 datasheet
05-09-2015 TC55V8200FT-12 Toshiba TC55V8200FT-12 datasheet
05-09-2015 TC55V8200FT-15 Toshiba TC55V8200FT-15 datasheet
05-09-2015 SM7320 SM7320高效LED恒流驱动芯片 v Linkage SM7320 datasheet
05-09-2015 K3277-01L > Features - High Current - Low On- Fuji Electric K3277-01L datasheet
05-09-2015 K3277-01S > Features - High Current - Low On- Fuji Electric K3277-01S datasheet
05-09-2015 SDM7128-XC Specification : TS-S98D017A Novembe Sumitomo SDM7128-XC datasheet
05-09-2015 FD121238LB FD1238 SERIES 120x120x38mm Airflow YS TECH FD121238LB datasheet
05-09-2015 FD121238MB FD1238 SERIES 120x120x38mm Airflow YS TECH FD121238MB datasheet
05-09-2015 FD121238HB FD1238 SERIES 120x120x38mm Airflow YS TECH FD121238HB datasheet
05-09-2015 FD121238EB FD1238 SERIES 120x120x38mm Airflow YS TECH FD121238EB datasheet
05-09-2015 FD121238EB FD1238 SERIES 120x120x38mm Airflow YS TECH FD121238EB datasheet
05-09-2015 FD121238EB FD1238 SERIES 120x120x38mm Airflow YS TECH FD121238EB datasheet
05-09-2015 FD121238UB FD1238 SERIES 120x120x38mm Airflow YS TECH FD121238UB datasheet
05-09-2015 FD241238LB FD1238 SERIES 120x120x38mm Airflow YS TECH FD241238LB datasheet
05-09-2015 FD241238MB FD1238 SERIES 120x120x38mm Airflow YS TECH FD241238MB datasheet
05-09-2015 FD241238HB FD1238 SERIES 120x120x38mm Airflow YS TECH FD241238HB datasheet
05-09-2015 FD241238EB FD1238 SERIES 120x120x38mm Airflow YS TECH FD241238EB datasheet
05-09-2015 FD241238EB FD1238 SERIES 120x120x38mm Airflow YS TECH FD241238EB datasheet
05-09-2015 FD241238EB FD1238 SERIES 120x120x38mm Airflow YS TECH FD241238EB datasheet
05-09-2015 FD241238UB FD1238 SERIES 120x120x38mm Airflow YS TECH FD241238UB datasheet
05-09-2015 FD481238LB FD1238 SERIES 120x120x38mm Airflow YS TECH FD481238LB datasheet
05-09-2015 FD481238MB FD1238 SERIES 120x120x38mm Airflow YS TECH FD481238MB datasheet
05-09-2015 FD481238HB FD1238 SERIES 120x120x38mm Airflow YS TECH FD481238HB datasheet
05-09-2015 FD481238EB FD1238 SERIES 120x120x38mm Airflow YS TECH FD481238EB datasheet
05-09-2015 FD481238EB FD1238 SERIES 120x120x38mm Airflow YS TECH FD481238EB datasheet
05-09-2015 FD481238EB FD1238 SERIES 120x120x38mm Airflow YS TECH FD481238EB datasheet
05-09-2015 FD481238UB FD1238 SERIES 120x120x38mm Airflow YS TECH FD481238UB datasheet
05-09-2015 STX616 STX616 High voltage NPN power trans STMicroelectronics STX616 datasheet
05-09-2015 STX616-AP STX616 High voltage NPN power trans STMicroelectronics STX616-AP datasheet
05-09-2015 G1427F31U Global Mixed-mode Technology Inc. 2 Global Mixed-mode Technology G1427F31U datasheet
05-09-2015 SP5610 SP5610 高精度原边反馈开关 Silicon Power Microelectronics SP5610 datasheet
05-09-2015 SP5610 FEBRUARY 1997 ADVANCE INFORMATION D Zarlink Semiconductor SP5610 datasheet
05-09-2015 CN5610 Switch-Mode High-Brightness LED Dri CONSONANCE CN5610 datasheet
05-09-2015 K1285 NEC K1285 datasheet
05-09-2015 D16857 DATA SHEET MOS INTEGRATED CIRCUIT NEC D16857 datasheet
05-09-2015 CD7523CS 华晶双极电路 CD7523CS 4W Huajing Microelectronics CD7523CS datasheet

8-2018    7-2018    6-2018    5-2018    4-2018    3-2018    2-2018    1-2018
12-2017    11-2017    10-2017    9-2017    8-2017    7-2017    6-2017    5-2017    4-2017    3-2017    2-2017    1-2017
12-2016    11-2016    10-2016    9-2016    8-2016    7-2016    6-2016    5-2016    4-2016    3-2016    2-2016    1-2016
12-2015    11-2015    10-2015    9-2015    8-2015    7-2015    6-2015    5-2015    4-2015    3-2015    2-2015    1-2015
12-2014    11-2014    10-2014    9-2014    8-2014    7-2014    6-2014    5-2014    4-2014    3-2014    2-2014    1-2014
12-2013    11-2013    10-2013    9-2013    8-2013    7-2013    6-2013    5-2013    4-2013    3-2013    2-2013    1-2013
12-2012    11-2012    10-2012    9-2012    8-2012    7-2012    6-2012    5-2012    4-2012    3-2012    2-2012    1-2012
12-2011    11-2011    10-2011    9-2011    8-2011    7-2011    6-2011    5-2011    4-2011    3-2011    2-2011    1-2011
12-2010    11-2010    10-2010    9-2010    8-2010    7-2010    6-2010    5-2010    4-2010    3-2010    2-2010    1-2010


31  30  29  28  27  26  25  24  23  22  21  20  19  18  17  16  15  14  13  12  11  10  09  08  07  06  05  04  03  02  01


The site has been moved : DatasheetsPDF.com
Since 2005 - HOME - Link US - All - Privacy Policy & Contact Us -